Total_Precipitation_Accumulation
1.76 1.81 1.94 1.42 1.19 1.08 1.02 1.03 1.02 0.91 0.86 0.89 0.89 0.91 0.93 0.99 1.05 1.14 1.19 1.18 1.25 1.38 1.51 1.69 1.83 1.89 1.84 1.64 1.45 1.28 1.12 1.10 1.19 1.29 1.35 1.34 1.37 1.66 1.99 2.14 2.01 1.36 1.47
1.39 1.48 1.61 1.27 1.06 0.94 0.89 0.98 0.92 0.82 0.76 0.80 0.81 0.84 0.90 0.96 1.00 1.09 1.15 1.25 1.33 1.42 1.53 1.65 1.69 1.69 1.53 1.30 1.11 1.02 1.02 1.08 1.28 1.44 1.37 1.22 1.37 1.60 1.90 1.97 1.98 1.33 1.40
0.90 1.10 1.15 1.14 0.98 0.89 0.89 0.92 0.88 0.80 0.75 0.81 0.84 0.90 1.00 1.08 1.04 1.02 1.13 1.26 1.35 1.41 1.47 1.57 1.56 1.47 1.23 1.04 0.94 0.91 1.00 1.20 1.44 1.67 1.78 1.13 0.97 1.51 1.89 1.85 1.56 1.23 1.26
0.68 0.82 0.85 0.91 0.85 0.73 0.65 0.69 0.79 0.77 0.77 0.83 0.92 1.05 1.17 1.28 1.24 1.25 1.27 1.31 1.39 1.40 1.43 1.48 1.42 1.24 1.04 0.91 0.85 0.90 0.99 1.28 1.57 1.99 1.92 1.13 0.74 1.15 1.57 1.43 1.27 1.23 1.22
0.60 0.69 0.78 0.72 0.64 0.64 0.59 0.59 0.72 0.82 0.86 0.85 0.93 1.05 1.20 1.42 1.44 1.48 1.51 1.58 1.55 1.44 1.36 1.33 1.28 1.08 0.90 0.79 0.78 0.88 0.99 1.26 1.62 1.77 1.43 1.29 1.17 1.14 1.19 1.21 1.23 1.24 1.24
0.50 0.56 0.57 0.67 0.66 0.63 0.62 0.62 0.67 0.77 0.85 0.87 0.90 1.05 1.20 1.45 1.62 1.67 1.62 1.64 1.57 1.38 1.28 1.20 1.11 0.91 0.79 0.75 0.83 0.89 1.01 1.34 1.43 1.06 1.02 1.06 1.10 1.22 1.13 1.32 1.38 1.34 1.30
0.47 0.54 0.55 0.62 0.64 0.64 0.62 0.68 0.72 0.71 0.79 0.79 0.76 0.87 1.07 1.30 1.60 1.63 1.57 1.51 1.37 1.28 1.24 1.16 1.01 0.83 0.79 0.80 0.87 0.89 1.04 1.37 1.17 0.80 0.99 1.16 1.01 1.00 1.12 1.37 1.52 1.49 1.32
0.58 0.49 0.56 0.66 0.66 0.63 0.59 0.64 0.66 0.68 0.70 0.73 0.72 0.79 0.97 1.16 1.32 1.38 1.35 1.28 1.19 1.19 1.16 1.10 0.97 0.84 0.76 0.73 0.76 0.82 1.02 1.10 0.86 0.78 0.81 0.83 0.77 0.90 1.14 1.33 1.49 1.53 1.35
0.78 0.62 0.59 0.58 0.54 0.56 0.60 0.62 0.66 0.69 0.76 0.80 0.80 0.88 1.05 1.08 1.14 1.15 1.18 1.17 1.16 1.14 1.13 1.02 0.87 0.74 0.67 0.63 0.66 0.76 0.97 1.12 0.96 0.96 0.73 0.74 0.91 1.07 1.27 1.43 1.45 1.40 1.30
1.07 0.86 0.71 0.70 0.69 0.59 0.58 0.68 0.74 0.81 0.89 0.96 0.98 1.05 1.19 1.18 1.15 1.20 1.16 1.16 1.16 1.20 1.16 1.01 0.79 0.65 0.62 0.63 0.69 0.82 0.99 0.91 0.82 0.85 0.79 0.71 1.00 1.18 1.34 1.42 1.42 1.32 1.29
1.51 1.13 0.93 0.85 0.87 0.83 0.70 0.72 0.87 0.94 1.04 1.10 1.25 1.37 1.54 1.56 1.40 1.50 1.36 1.41 1.36 1.38 1.30 1.16 0.99 0.86 0.78 0.74 0.93 1.12 0.96 0.87 1.01 1.05 0.95 0.94 1.11 1.30 1.45 1.46 1.48 1.44 1.40
1.68 1.26 1.13 0.96 0.86 0.87 0.99 1.25 1.34 1.14 1.27 1.51 1.73 1.86 2.10 2.06 1.95 1.60 1.69 1.81 1.91 2.02 1.87 1.71 1.61 1.27 1.08 1.02 1.50 1.71 1.02 0.90 0.99 1.13 1.06 1.07 1.28 1.55 1.70 1.61 1.53 1.49 1.39
1.59 1.35 1.27 1.24 1.22 1.11 1.26 1.45 1.54 1.52 1.68 1.81 1.89 2.00 2.15 1.88 1.78 1.77 1.91 2.14 2.26 2.32 2.18 2.23 2.21 1.88 1.81 1.81 2.01 1.90 1.35 1.25 1.18 1.14 1.20 1.29 1.42 1.70 1.98 1.82 1.63 1.54 1.37
2.06 1.82 1.64 1.65 1.56 1.48 1.45 1.59 1.65 1.70 1.72 1.85 1.98 1.92 2.03 2.16 2.13 2.18 2.37 2.36 2.44 2.56 2.83 2.50 2.63 2.48 2.31 2.18 2.15 2.01 1.69 1.67 1.66 1.65 1.81 1.60 1.54 1.84 2.17 2.07 1.85 1.68 1.53
2.61 2.56 2.29 2.02 1.86 1.81 1.93 1.94 1.84 1.91 1.96 2.07 2.22 2.15 2.15 2.39 2.47 2.52 2.50 2.58 2.37 2.47 2.77 2.85 2.68 2.87 2.95 2.74 2.49 2.23 2.13 1.96 1.85 1.88 1.98 1.89 1.84 1.91 2.17 2.33 2.17 2.00 1.82
2.80 2.88 2.67 2.48 2.34 2.29 2.43 2.51 2.40 2.20 2.37 2.45 2.44 2.28 2.33 2.57 2.84 2.95 2.81 2.86 2.65 2.54 2.70 2.81 2.82 3.38 3.31 3.16 2.64 2.34 2.28 2.21 2.04 2.08 2.15 2.21 1.94 1.80 1.94 2.34 2.50 2.43 2.25
3.18 3.09 3.02 2.98 2.89 2.92 2.89 2.86 2.66 2.58 2.48 2.56 2.63 2.65 2.61 2.65 2.96 3.07 3.11 3.05 2.87 2.72 2.86 2.90 3.11 3.36 3.10 2.96 2.68 2.50 2.38 2.26 2.05 2.06 2.30 2.52 2.23 1.98 1.85 2.03 2.36 2.53 2.55
3.55 3.52 3.50 3.33 3.36 3.38 3.35 3.25 3.08 2.93 2.75 2.59 2.58 2.72 2.74 2.82 3.03 3.20 3.06 2.94 3.06 3.07 3.18 3.36 3.43 3.41 3.28 3.15 2.95 2.60 2.39 2.35 1.89 1.86 2.00 2.16 2.29 2.03 2.10 2.24 2.42 2.47 2.68
4.06 4.21 4.22 4.11 3.91 3.68 3.63 3.62 3.65 3.59 3.33 3.01 2.90 2.89 2.89 2.78 2.89 3.13 3.09 3.14 3.19 3.24 3.28 3.00 3.43 3.41 3.41 3.26 2.70 2.51 2.22 2.13 1.99 1.71 1.73 1.71 1.86 1.91 1.94 2.08 2.26 2.26 2.63
4.36 4.85 4.80 4.60 4.48 4.40 4.30 4.07 4.07 3.83 3.51 3.38 3.32 3.39 3.20 3.06 3.01 3.22 3.19 3.26 3.29 3.38 3.40 3.35 3.56 3.49 3.32 3.22 2.50 2.32 2.11 1.75 1.75 1.72 1.55 1.54 1.62 1.56 1.67 1.95 2.24 1.91 2.29
4.64 5.09 5.31 5.31 5.11 4.81 4.43 4.04 3.87 3.78 3.73 3.56 3.43 3.30 3.16 3.07 3.15 3.45 3.33 3.57 3.50 3.28 3.23 3.33 3.54 3.39 3.13 3.16 3.07 2.54 1.97 1.64 1.66 1.53 1.61 1.75 1.63 1.63 1.84 2.17 2.34 2.22 2.00
4.23 4.66 4.80 4.57 4.44 4.27 4.02 3.92 3.91 4.11 3.80 3.53 3.42 3.28 3.00 2.98 3.08 3.09 3.36 3.25 3.25 3.33 3.24 3.25 3.47 3.27 2.85 2.96 3.17 3.07 2.38 2.11 1.69 1.26 1.52 1.65 1.72 1.92 2.00 2.04 2.38 2.56 2.34
3.18 3.43 3.60 3.77 3.69 3.58 3.56 3.54 3.59 3.80 3.56 3.37 3.25 3.17 2.82 2.68 2.69 2.80 2.88 2.94 3.24 3.18 3.21 3.28 3.22 3.11 2.81 2.74 2.88 3.09 2.64 2.24 1.80 1.31 1.24 1.51 1.87 2.04 1.96 2.05 2.16 2.39 2.52
2.79 2.98 3.04 3.08 3.20 3.23 3.31 3.22 3.06 2.96 2.87 2.82 2.88 2.84 2.80 2.68 2.59 2.62 2.65 2.69 2.76 2.69 2.83 2.58 2.69 2.91 3.03 2.76 2.82 2.73 2.60 2.46 2.33 1.87 1.52 1.50 1.77 1.93 2.04 1.95 1.99 2.17 2.49
2.19 2.42 2.58 2.70 2.80 2.92 2.98 2.90 2.86 2.64 2.63 2.68 2.69 2.74 2.70 2.67 2.65 2.62 2.60 2.56 2.43 2.32 2.45 2.46 2.64 2.65 2.67 2.62 2.66 2.71 2.75 2.69 2.50 2.37 2.10 1.99 1.92 1.67 1.73 1.81 1.88 2.00 2.25
1.92 2.10 2.25 2.40 2.46 2.57 2.62 2.65 2.62 2.57 2.57 2.57 2.54 2.54 2.53 2.55 2.46 2.42 2.39 2.38 2.25 2.24 2.32 2.40 2.48 2.42 2.46 2.58 2.58 2.59 2.73 2.70 2.70 2.72 2.34 2.18 2.02 1.58 1.54 1.53 1.67 1.81 2.13